Regional Weather Roundup
Issued by NWS Jackson, KY

Home | Current Version | Previous Version | Text Only | Print | Product List | Glossary Off
Versions: 1 2 3 4 5 6 7 8 9 10 11 12 13 14 15 16 17 18 19 20 21 22 23 24 25 26 27 28 29 30 31 32 33 34 35 36 37 38 39 40 41 42 43 44 45 46 47 48 49 50

000
ASUS43 KJKL 270510
RWRJKL

EAST KENTUCKY HOURLY WEATHER ROUNDUP
NATIONAL WEATHER SERVICE JACKSON KY
100 AM EDT FRI MAR 27 2015

NOTE: "FAIR" INDICATES FEW OR NO CLOUDS BELOW 12,000 FEET WITH
NO SIGNIFICANT WEATHER AND/OR OBSTRUCTIONS TO VISIBILITY.

* THESE REPORTS ARE NOT UNDER NWS QUALITY CONTROL AND MAY NOT
  REPORT WEATHER SUCH AS PRECIPITATION AND FOG.

KYZ079-080-083-085-087-088-110-112-115-119-120-270600
...EASTERN KENTUCKY...

CITY           SKY/WX    TMP DP  RH WIND       PRES   REMARKS
JACKSON        LGT RAIN  40  37  89 CALM      29.94R
LONDON         CLOUDY    42  36  79 N7        29.97R
SOMERSET*      CLOUDY    39  37  93 CALM      29.99R
MONTICELLO*    CLOUDY    43  39  87 CALM      29.99F
MIDDLESBORO*   RAIN      42  39  89 N5        29.95R
BLACK MTN*       N/A     32  30  93 N12         N/A  WCI  23
PIKEVILLE APT* LGT RAIN  39  39 100 NW7       29.92R WCI  34
BIG SANDY*     LGT RAIN  41  40  95 CALM      29.94R
MOREHEAD APT*  CLOUDY    41  36  81 NW6       29.98R
$$

KYZ035-036-041-042-044-050-067-078-099-270600
...CENTRAL KENTUCKY...

CITY           SKY/WX    TMP DP  RH WIND       PRES   REMARKS
MT STERLING*   CLOUDY    39  36  87 N6        29.99S WCI  35
FLEMING/MASON* CLEAR     39  36  87 W3        29.98R
DANVILLE*      CLOUDY    37  36  93 NW7       30.00F WCI  32
RICHMOND*      CLOUDY    39  36  87 N6        29.96S WCI  35
LEXINGTON      MOCLDY    38  35  89 NW3       29.98F
FRANKFORT      CLOUDY    39  35  86 NW3       29.97F
$$

KYZ091>093-OHZ055-061-077-WVZ005-015-034-035-042-270600
...SOUTHERN OHIO/WEST VIRGINIA...

CITY           SKY/WX    TMP DP  RH WIND       PRES   REMARKS
COVINGTON      MOCLDY    36  31  82 CALM      29.98S
COLUMBUS       CLOUDY    36  27  69 NW12      29.95R WCI  28
DAYTON         CLOUDY    35  26  69 N9        29.98F WCI  28
WILMINGTON     CLOUDY    37  28  70 N12       29.96R WCI  29
HUNTINGTON     CLOUDY    40  35  83 NW9       29.94R WCI  34
CHARLESTON     LGT RAIN  42  39  89 W5        29.90S
PINEVILLE*     MIX PCPN  42  42  99 MISG      29.94R
BECKLEY        LGT RAIN  37  34  89 N5        29.86R WCI  33
BLUEFIELD      LGT RAIN  40  36  86 NW7       29.85R
$$

VAZ002-007-008-TNZ017-027-036-066-071-270600
...SOUTHWEST VIRGINIA/EAST TENNESSEE...

CITY           SKY/WX    TMP DP  RH WIND       PRES   REMARKS
WISE*          LGT RAIN  37  37 100 N6        29.89S WCI  33
JONESVILLE*    LGT RAIN  41  41 100 NW6       29.95R
ABINGDON*      LGT RAIN  44  41  89 N5        29.85S
BRISTOL        LGT RAIN  45  41  86 NW9       29.87F
KNOXVILLE      LGT RAIN  45  42  89 N14       29.91S
OAK RIDGE      RAIN      46  43  89 VRB5      29.93F
CROSSVILLE     LGT RAIN  39  36  89 NE10      29.91F WCI  32
NASHVILLE      CLOUDY    42  36  79 N10       30.01R
$$

...KEY TO REMARKS...
VSB - VISIBILITY IN MILES
WCI - WIND CHILL INDEX
HX  - HEAT INDEX

$$


USA.gov is the U.S. government's official web portal to all federal, state and local government web resources and services.